Wind_Speed
4 5 4 3 4 5 2 2 1 1 3 2 0 1 2 1 1 1 2 1 1 1 1 1 2 2 2 3 5 5 2 2 3 2 1 3 5 4 5 6 6 6 6 6 5 5 7 10 10 10 10 10 10 10 9 10 10 10 10 10 10 11 11 10 9 8 7 7 8 8 8 8 8 8 8 9 9 9 9 10 10 10 10 11 12 12 12 12 11 11 11 11 11 12 12 13 13
4 3 2 3 2 2 1 2 2 2 4 2 1 2 1 0 0 3 5 4 3 2 2 3 5 4 4 5 5 4 2 1 1 1 1 6 7 5 6 7 7 6 7 7 7 8 10 11 11 12 11 10 10 9 9 9 9 9 8 8 8 9 9 10 10 9 9 8 8 8 8 8 8 9 9 9 9 9 9 10 10 9 9 11 13 13 13 13 13 13 13 13 13 13 13 14 14
3 3 2 3 1 2 1 2 1 0 3 1 2 2 1 2 3 4 6 5 5 5 3 2 3 3 3 2 2 1 1 1 0 1 1 7 5 4 7 8 8 8 8 8 8 10 12 12 12 13 12 10 10 9 9 9 9 8 8 8 8 6 6 7 7 7 8 7 7 8 9 10 10 10 10 10 10 10 9 9 10 10 10 11 12 13 13 14 14 14 14 14 14 14 14 15 16
3 3 2 3 1 2 3 3 1 2 2 2 1 3 2 4 5 4 4 5 7 5 1 1 1 1 1 1 2 1 1 1 1 2 2 5 5 5 8 9 9 9 8 8 9 11 13 13 11 12 12 11 10 10 9 9 9 9 9 9 8 7 5 5 4 5 7 7 8 9 9 10 11 11 10 11 11 10 10 9 9 9 10 10 11 12 13 13 13 13 14 14 14 15 15 16 17
4 3 3 3 1 1 2 2 2 3 1 3 1 2 4 5 5 4 5 6 5 3 1 2 1 1 0 1 1 1 2 2 2 5 5 6 8 9 10 10 10 9 9 9 10 12 13 13 12 12 12 12 12 11 10 10 10 9 9 8 8 8 6 6 5 5 6 6 7 8 8 8 9 9 10 10 10 10 10 9 9 10 11 11 11 11 12 12 12 12 14 14 15 15 16 17 18
6 5 3 4 2 1 2 2 2 1 3 4 2 3 5 6 7 8 6 4 3 2 3 2 2 2 1 1 1 1 1 3 5 7 7 9 10 11 12 12 11 11 11 11 11 12 14 14 13 13 13 14 13 13 13 12 11 10 10 9 8 7 7 6 6 6 6 6 6 7 7 7 8 8 9 9 9 9 10 9 10 10 11 12 11 11 11 12 12 12 13 14 14 14 15 17 18
7 3 3 4 1 2 2 2 3 2 3 4 2 3 6 7 6 9 7 4 2 2 3 2 3 4 1 1 1 1 1 3 6 8 10 13 13 13 14 13 13 13 13 13 12 13 15 14 13 13 13 13 13 13 12 12 12 12 11 10 9 8 7 6 6 5 5 5 5 6 6 7 7 7 8 8 9 8 9 9 10 10 10 11 11 11 11 11 12 12 14 15 15 14 14 15 16
5 1 1 3 1 3 3 2 3 2 1 2 3 2 6 8 7 9 8 5 3 3 2 3 3 2 1 1 1 1 1 5 8 11 14 15 15 14 14 14 14 14 13 12 12 12 13 13 12 12 12 12 12 11 11 11 11 11 10 10 10 9 8 7 7 6 5 4 4 4 5 5 6 6 7 7 8 8 9 9 9 10 10 11 11 12 12 13 12 12 14 15 15 15 15 15 15
4 2 0 2 2 2 2 1 2 2 2 3 3 3 4 6 7 8 9 4 1 3 3 5 4 2 2 2 1 1 2 8 12 13 15 15 15 15 14 13 13 13 13 12 11 10 11 12 12 12 12 12 11 11 11 11 10 10 10 10 9 9 8 8 7 7 6 5 5 5 4 5 5 6 7 7 7 8 8 8 9 10 10 11 11 12 13 13 13 13 14 15 15 15 16 16 17
4 3 1 2 2 2 2 1 2 2 4 4 4 5 4 6 6 6 8 5 2 4 3 3 2 1 4 4 1 1 5 12 14 15 15 16 15 14 13 13 13 13 12 11 10 10 10 11 12 12 12 11 11 12 11 11 11 10 10 10 9 9 8 8 8 7 7 7 6 6 6 5 6 6 7 8 8 8 8 8 8 9 10 11 11 12 12 13 13 13 14 15 16 17 17 18 18
2 3 2 3 3 1 2 3 3 3 3 3 4 5 5 7 6 4 4 3 2 4 4 2 2 3 3 2 1 1 9 15 16 17 16 15 15 14 13 12 12 11 11 10 9 9 10 11 11 12 11 11 11 11 11 11 11 11 11 11 11 10 10 9 9 9 9 8 8 8 8 7 7 8 8 8 9 9 9 9 9 10 10 11 12 12 12 13 13 14 15 16 16 17 17 19 19
1 2 3 3 2 2 2 2 3 3 4 2 3 4 4 7 6 5 5 4 4 3 4 5 3 4 3 2 2 3 11 17 18 18 17 16 15 14 13 12 11 10 10 9 8 9 10 10 11 11 11 11 10 10 11 11 12 12 12 12 12 12 11 11 11 10 10 10 10 10 10 9 9 9 9 9 9 10 10 11 11 11 11 12 12 12 13 13 14 15 16 16 17 17 17 18 20
2 1 4 2 2 1 1 2 3 2 4 3 3 1 4 7 5 6 7 3 5 5 4 6 3 3 3 3 1 2 10 19 19 19 17 16 15 14 13 12 11 10 10 9 8 9 10 10 11 11 12 12 11 11 11 12 12 12 12 12 12 13 13 12 12 12 12 12 11 11 11 10 10 10 9 9 9 10 10 10 11 11 12 13 13 13 14 14 15 15 16 17 17 18 18 18 19
2 2 4 2 1 1 2 1 2 1 4 4 2 2 3 3 3 3 7 4 7 6 2 4 5 2 2 2 1 2 11 21 21 19 18 17 15 14 13 12 11 10 9 8 8 9 9 10 11 11 12 12 12 12 12 13 13 13 13 13 13 13 13 13 13 13 13 13 13 13 12 12 11 11 11 11 11 11 10 10 10 11 12 12 13 14 14 15 15 16 17 17 18 19 19 19 18
3 2 4 3 2 0 2 1 1 3 4 3 2 3 3 0 1 2 5 5 6 3 1 3 5 3 3 5 3 3 15 25 23 20 19 17 16 15 14 13 11 10 10 9 9 9 9 10 10 11 11 12 12 12 12 13 13 13 13 13 14 14 14 14 14 13 13 13 14 14 13 13 13 13 13 13 13 13 13 12 12 12 12 12 13 13 14 14 15 16 16 17 18 19 20 20 19
2 3 4 3 1 1 3 2 2 2 4 3 0 2 4 1 1 2 2 1 1 0 0 3 4 1 2 6 3 3 20 27 24 22 20 19 17 16 14 13 12 11 11 10 10 10 10 9 10 10 11 11 11 12 12 12 12 12 12 13 13 13 13 13 14 14 14 14 14 14 14 14 14 14 14 15 15 15 15 15 15 15 15 15 14 14 14 14 15 15 16 17 18 19 21 20 20
2 3 4 2 2 2 4 4 4 3 4 3 2 3 5 2 1 2 1 2 2 1 2 3 2 1 2 3 4 6 25 29 26 24 21 20 18 17 15 14 13 12 11 11 10 10 9 9 9 10 10 10 10 10 10 11 11 11 12 12 12 13 13 12 13 13 13 13 13 13 13 14 14 14 15 15 16 16 17 17 18 18 18 18 17 17 16 16 15 16 16 17 18 20 21 21 21
3 3 3 1 3 3 5 7 6 4 2 3 4 5 6 3 3 2 1 1 2 1 3 3 4 4 4 3 0 13 27 28 26 25 22 20 18 17 15 14 13 12 12 11 10 10 9 8 9 8 9 9 9 9 10 10 10 10 11 11 12 12 12 13 13 13 13 13 13 13 13 14 14 15 15 16 16 17 17 18 19 19 20 20 20 20 20 19 18 18 17 18 19 20 21 22 22
3 3 2 2 5 4 5 6 6 3 0 3 4 3 4 5 4 4 3 2 1 3 5 2 5 7 4 3 8 18 24 26 25 24 21 19 18 18 16 15 14 13 13 12 11 9 8 8 7 7 8 8 8 8 9 9 9 9 10 10 11 11 12 13 13 14 14 14 14 14 14 14 14 15 15 16 16 17 17 17 18 18 19 20 21 21 22 22 21 21 20 20 20 20 21 22 23
1 3 2 4 5 4 4 6 6 5 3 4 4 2 2 4 5 4 3 2 2 7 7 4 8 12 7 6 11 17 21 23 23 22 21 19 19 19 18 17 16 15 14 13 12 10 9 8 7 6 6 6 7 7 8 8 8 8 8 9 10 10 11 12 13 13 14 14 15 15 15 15 15 15 15 15 16 16 17 17 18 18 19 20 21 22 23 23 24 24 23 23 23 22 22 22 23
1 3 3 4 2 2 5 7 6 5 4 5 4 3 2 4 4 3 4 3 5 8 10 11 14 14 9 7 11 17 19 20 20 21 21 20 20 19 18 17 16 15 14 13 12 11 9 8 6 5 5 5 5 6 7 7 7 7 8 8 9 9 10 10 11 12 12 13 13 14 14 14 15 15 15 16 16 17 17 18 20 21 22 22 22 23 24 24 25 26 26 26 26 25 24 23 24
1 1 3 4 3 1 4 5 4 3 3 3 5 4 3 3 3 5 8 8 7 5 8 12 12 8 10 11 14 16 16 18 19 20 20 21 20 19 18 17 16 15 14 14 12 11 9 8 6 5 3 3 4 5 6 6 6 6 7 7 8 8 9 9 10 10 11 11 12 12 12 13 13 14 14 15 16 17 18 19 21 23 24 25 25 26 26 26 26 27 27 27 27 26 25 24 24
0 2 3 3 4 3 2 2 3 4 5 4 4 3 2 3 4 4 9 14 7 2 3 6 7 7 14 15 14 12 12 15 19 22 22 22 21 20 20 18 17 16 15 14 13 11 9 7 6 4 3 2 2 3 4 4 4 5 6 6 7 7 8 9 9 10 10 11 11 11 12 13 13 14 14 15 16 16 17 19 20 22 23 25 26 27 27 27 27 27 27 27 27 27 27 26 25
3 1 3 2 3 5 2 2 2 4 4 4 2 1 3 5 4 1 8 17 8 2 2 3 4 10 16 13 11 12 14 16 20 23 23 23 22 21 19 18 17 16 16 15 13 11 9 8 6 4 2 0 1 2 2 3 4 4 4 5 6 7 8 9 9 10 9 9 10 10 11 12 13 14 15 16 16 17 18 18 19 20 21 23 24 25 27 28 28 28 28 28 28 28 28 28 27
3 2 2 1 2 6 4 1 2 2 2 0 2 2 4 5 2 2 12 15 8 4 2 4 5 10 12 11 10 11 12 15 19 20 21 22 20 19 18 18 17 17 17 16 14 12 10 9 6 5 3 1 2 2 2 3 3 3 4 4 5 6 7 8 9 9 9 8 9 9 10 11 12 13 14 15 16 17 18 19 20 21 21 22 22 23 25 26 27 28 29 29 29 29 29 29 28
2 4 3 1 3 5 4 3 1 1 2 2 2 6 5 2 1 7 14 10 5 4 4 5 7 8 9 9 10 10 9 14 19 20 21 21 20 20 19 19 18 18 18 17 15 14 11 9 7 6 4 3 2 1 1 1 2 2 3 4 5 6 7 8 8 8 8 8 9 9 10 10 11 12 14 15 16 17 18 19 21 22 23 24 24 23 24 24 25 26 27 28 29 29 29 29 28
3 4 4 4 3 4 2 3 3 2 2 5 5 8 5 3 1 6 7 1 4 6 4 4 7 8 9 8 9 11 11 15 21 21 20 20 21 22 21 21 20 19 19 18 16 14 12 10 8 6 5 3 2 1 1 1 1 2 3 3 4 5 6 7 7 7 7 8 8 9 9 10 12 13 14 15 16 17 18 19 21 22 23 24 25 25 25 24 24 24 24 25 27 29 30 30 29
1 2 2 4 4 5 2 3 4 1 2 6 7 5 3 3 2 10 4 2 4 6 5 5 7 7 7 7 7 8 11 16 21 21 21 23 24 25 25 24 23 21 20 19 17 14 12 10 8 7 5 4 3 3 2 1 1 2 2 3 4 5 6 6 6 6 6 6 7 7 9 11 13 14 15 17 18 19 20 20 22 22 23 23 24 25 25 25 24 24 24 23 24 25 27 29 29
1 2 2 6 7 4 4 1 2 2 2 6 6 4 4 4 10 12 3 3 3 5 6 5 7 6 5 7 5 5 10 16 19 22 24 25 27 28 27 26 24 23 21 19 17 15 13 11 9 7 6 5 5 4 3 2 2 2 3 3 4 4 5 5 5 5 5 5 5 7 9 11 13 14 16 17 19 20 21 21 22 23 23 24 24 24 25 25 25 25 25 25 24 24 25 27 29
0 2 1 4 7 4 3 1 1 2 2 5 3 5 6 9 16 11 3 6 5 5 7 5 6 6 5 6 5 5 9 15 19 23 25 25 27 28 27 26 23 23 22 20 18 17 14 12 10 9 8 7 6 5 4 3 3 2 3 3 3 4 3 3 4 4 4 4 5 7 9 11 13 15 17 18 20 21 22 22 23 23 24 24 25 25 25 25 25 25 26 26 26 25 24 25 26
0 1 1 2 2 4 5 1 2 2 2 3 3 4 9 10 12 8 4 7 7 7 8 5 6 6 6 6 6 6 9 16 19 22 25 26 27 27 27 26 24 23 23 22 20 18 16 13 11 11 9 8 7 5 5 4 3 3 2 3 3 3 3 3 3 3 3 4 5 7 9 11 13 15 17 19 20 21 23 24 24 25 25 25 26 25 25 25 25 24 25 26 27 26 24 24 23
3 1 3 3 1 4 8 3 4 3 1 2 3 3 10 12 9 4 4 5 6 8 7 6 8 8 8 7 7 7 8 14 18 21 25 26 27 28 28 27 26 25 24 23 22 20 17 14 13 12 10 9 8 7 6 4 4 3 3 3 3 3 3 2 3 3 3 4 6 8 10 12 14 16 17 19 20 22 23 25 25 26 26 26 27 26 26 25 25 24 24 24 24 26 27 28 28
3 1 3 4 2 3 6 3 3 3 0 1 3 3 7 10 6 1 3 5 6 7 8 8 9 9 9 7 8 8 7 9 13 21 27 27 28 29 29 28 27 26 25 24 23 21 19 15 14 13 12 11 9 8 6 4 4 4 4 4 4 4 3 3 3 3 3 5 6 8 10 13 15 16 18 19 21 22 24 25 26 26 27 27 27 27 26 25 25 24 25 24 23 23 24 27 30
4 2 2 4 4 3 4 4 2 1 2 3 4 5 11 14 10 4 4 6 6 8 11 10 9 9 9 9 9 9 9 9 10 20 28 28 28 30 30 29 28 27 26 25 24 22 19 17 16 15 13 12 10 8 6 5 5 4 5 5 5 5 4 4 4 4 4 5 7 9 11 13 15 17 18 20 22 23 24 25 26 26 27 28 27 27 26 25 25 24 25 26 25 23 22 22 26
4 3 3 4 3 4 5 5 2 2 2 5 3 6 15 19 18 12 6 7 9 12 11 9 9 11 11 10 10 10 10 10 13 21 27 28 29 30 31 30 29 28 27 26 25 23 20 18 17 16 14 12 10 8 7 6 5 5 6 6 6 5 5 6 6 6 5 6 8 9 12 14 16 17 19 21 22 23 25 25 26 27 28 28 28 28 28 27 27 26 26 27 26 25 23 24 26
6 5 4 5 5 5 6 5 4 1 1 7 8 10 15 17 19 18 8 7 9 13 9 7 10 12 10 9 9 11 12 12 15 20 24 27 30 31 32 31 30 29 28 27 26 24 22 20 19 18 15 12 10 8 7 6 6 6 6 6 7 6 6 7 6 6 7 7 9 10 12 15 16 18 19 21 22 24 25 26 27 28 28 29 29 29 29 28 28 27 27 27 27 25 23 24 24
5 4 4 5 5 7 6 3 3 1 2 8 10 9 13 16 18 20 10 5 9 14 9 10 13 12 9 9 11 12 14 12 12 18 22 27 30 32 32 31 30 29 28 28 28 26 23 21 20 19 16 13 11 9 8 7 7 7 8 7 8 7 7 8 7 7 7 8 9 11 13 15 17 18 19 21 22 24 25 27 27 28 28 29 29 29 29 29 28 28 28 27 25 22 19 18 18
4 4 4 5 5 7 7 2 4 2 2 6 7 7 14 16 17 20 13 7 13 16 10 13 18 14 9 10 13 13 12 8 8 15 20 25 28 30 31 30 30 30 29 29 29 28 24 22 21 19 16 15 12 10 9 9 8 8 9 8 9 9 8 8 8 8 9 10 10 12 14 16 17 18 19 21 22 23 25 26 27 28 29 29 29 29 29 29 29 28 27 26 24 21 19 18 16
3 3 2 4 4 5 6 3 4 2 2 4 6 8 15 18 17 21 19 12 15 14 11 16 18 13 10 12 13 11 10 9 9 11 16 23 26 28 29 30 32 32 30 31 30 28 25 23 22 19 18 16 13 12 11 10 10 9 10 9 10 11 10 9 10 10 10 12 12 13 15 16 18 18 19 20 22 23 25 26 28 29 29 29 29 30 30 29 29 28 25 23 22 20 19 17 14
3 3 3 5 3 1 4 4 4 1 2 4 7 10 13 15 16 18 15 8 10 11 11 15 14 11 12 11 10 11 13 13 12 10 13 19 24 27 31 32 33 32 31 32 32 30 27 25 23 21 20 17 15 14 12 11 11 10 10 10 10 12 11 10 11 11 11 13 14 14 15 17 18 19 20 21 23 24 25 27 28 29 30 29 29 29 29 29 28 27 25 21 20 20 19 16 13
3 5 6 6 4 5 6 3 4 3 1 3 6 11 10 7 10 10 5 3 7 7 7 12 11 9 9 7 8 12 13 13 12 13 13 16 22 28 31 32 32 33 33 34 34 32 29 27 24 22 20 18 17 15 13 12 11 11 11 10 11 11 12 12 12 12 12 14 15 15 16 17 19 20 21 22 23 25 26 27 28 30 30 30 30 29 30 30 28 26 24 20 17 18 21 20 15
4 6 10 9 7 7 5 3 5 4 3 3 5 7 9 1 3 7 4 3 7 3 5 12 10 7 7 8 10 11 11 10 11 13 14 16 21 26 28 30 32 34 35 36 35 33 30 27 25 22 21 19 17 15 13 13 12 12 11 10 10 11 13 14 12 13 15 16 17 17 18 18 20 21 22 22 24 25 26 27 28 29 30 30 30 30 30 30 29 27 23 19 18 18 20 23 20
3 5 7 7 5 4 3 1 2 1 3 3 4 1 9 3 4 4 4 4 9 7 8 12 10 6 8 9 10 8 9 9 9 10 13 15 20 23 25 30 34 35 36 35 35 33 30 27 25 23 22 20 18 15 14 14 13 12 11 10 10 10 13 15 14 15 16 17 18 19 19 20 20 22 23 24 25 26 27 27 28 28 29 30 29 29 29 28 27 26 23 19 18 18 18 22 23
4 3 5 6 6 5 5 3 2 3 2 3 0 3 8 8 4 4 3 4 10 12 14 13 9 9 9 9 9 8 9 9 8 10 12 15 19 24 27 32 34 35 35 35 35 33 30 27 25 23 21 19 18 15 14 13 13 12 11 10 11 11 13 16 16 16 18 18 19 19 20 21 21 23 24 25 26 27 27 28 28 28 29 30 30 29 29 27 25 24 23 20 20 19 18 22 24
4 4 6 6 6 5 5 4 3 2 3 4 4 4 5 10 5 2 3 4 9 12 15 14 10 10 8 7 8 7 8 8 9 11 12 14 19 26 29 31 32 33 34 36 36 34 30 28 25 22 20 19 17 15 13 12 12 11 11 11 12 13 14 15 16 17 18 18 19 20 21 22 23 25 26 27 28 28 28 29 29 29 30 31 31 31 31 29 27 25 24 22 20 20 19 21 25
3 6 6 5 4 4 4 3 2 1 2 7 8 7 4 9 4 3 2 4 9 11 12 11 10 9 7 6 6 6 6 7 9 10 10 13 20 26 27 28 29 31 34 35 35 33 30 27 25 22 20 18 16 14 12 11 11 12 11 11 13 14 14 15 16 18 18 18 20 22 23 24 25 27 27 28 29 29 29 29 30 30 31 32 32 32 32 31 29 27 25 23 21 22 22 22 25
6 7 5 5 4 4 3 1 3 1 4 8 8 12 10 8 3 5 4 5 9 10 9 8 8 9 7 6 6 6 6 6 7 7 7 11 17 22 24 26 28 30 32 33 33 32 30 27 25 22 19 17 16 13 11 11 12 12 12 12 13 14 13 14 16 18 19 19 21 22 24 25 26 28 29 30 30 30 30 30 31 32 32 32 32 31 32 30 28 26 25 25 23 23 24 24 26
5 4 3 3 3 3 4 4 3 1 6 5 4 8 10 9 6 4 6 7 8 10 10 9 9 9 7 5 5 5 6 5 6 6 6 8 11 16 21 24 26 29 31 32 33 31 29 27 25 21 18 17 15 13 12 12 12 12 12 12 12 12 12 14 16 18 19 19 21 23 25 26 28 29 30 31 31 31 31 32 33 33 33 33 32 31 31 30 29 27 26 25 24 24 24 25 26
4 3 4 2 4 3 3 3 1 3 7 3 1 3 5 12 11 8 8 10 11 11 10 10 9 9 7 5 5 4 4 5 6 6 7 8 9 12 19 23 25 28 32 33 33 31 29 27 25 21 19 17 15 14 13 12 12 12 11 11 11 11 12 13 15 17 18 18 20 22 24 26 29 31 31 32 33 32 33 33 33 33 33 33 33 32 32 31 29 28 27 26 26 26 26 26 27
6 5 4 3 1 1 3 4 2 5 7 3 3 3 4 9 9 12 17 17 15 12 11 10 8 8 7 5 4 4 4 6 6 7 8 9 10 13 19 23 25 28 31 33 33 31 29 27 24 21 19 17 16 14 13 13 13 11 11 11 10 10 12 13 14 16 16 17 19 21 23 26 27 30 31 32 33 32 33 33 33 33 33 33 33 32 31 31 29 29 29 28 29 28 28 28 29
5 4 5 5 5 4 5 4 4 7 6 3 1 2 4 4 4 9 15 16 14 10 10 9 7 6 4 3 4 4 5 6 6 7 9 9 11 15 19 23 26 28 31 32 32 31 29 27 25 22 20 18 16 14 14 13 12 11 10 10 10 10 11 12 14 15 16 17 19 21 23 25 27 29 31 32 32 32 33 33 33 33 33 32 31 31 30 30 29 29 29 30 31 30 29 30 31
2 3 4 3 5 5 3 3 4 1 4 5 3 4 6 4 3 4 5 7 10 10 8 8 9 7 2 4 7 6 6 7 7 8 9 10 12 16 19 22 25 28 30 32 33 31 30 27 25 22 19 17 15 14 14 13 12 11 10 9 9 10 10 12 13 15 16 18 19 21 24 25 27 29 31 32 32 32 33 33 32 31 31 31 29 29 29 29 29 29 30 31 32 31 31 32 33
3 2 4 4 3 5 3 3 1 4 3 7 2 5 10 6 5 6 6 6 9 9 7 9 11 6 4 6 8 7 8 8 8 9 10 9 11 15 20 23 26 28 31 32 32 31 30 28 25 22 19 17 15 15 14 13 12 11 10 9 9 9 10 11 13 15 17 19 20 22 24 26 28 29 31 32 33 33 33 32 31 30 29 28 27 27 28 28 29 30 30 30 31 31 31 33 33
6 4 5 3 2 4 3 2 3 2 5 6 4 11 15 12 7 4 5 8 11 11 10 12 10 5 6 10 10 9 8 7 8 9 9 9 10 15 20 24 27 30 31 32 32 30 28 26 24 22 19 17 16 16 15 13 12 11 10 9 8 8 9 11 13 15 17 19 21 23 25 27 28 29 30 31 32 33 33 31 29 28 28 27 27 26 27 27 28 29 29 29 30 29 30 32 32
5 4 3 4 3 2 2 2 2 4 4 4 11 17 17 14 9 4 7 12 14 13 11 11 10 8 9 11 11 10 7 6 8 9 9 9 10 15 21 23 26 28 30 31 30 28 26 24 23 21 19 18 17 16 15 13 12 11 9 8 7 8 9 11 13 15 17 19 22 23 25 27 28 29 30 31 32 32 32 30 28 28 27 26 27 27 27 27 26 27 28 28 27 27 29 32 31
2 0 0 2 2 4 3 3 3 3 3 5 12 16 15 11 7 8 13 14 13 12 10 10 11 11 11 10 10 9 8 8 9 9 10 10 11 16 21 23 25 27 28 29 29 27 25 24 22 20 19 18 17 16 14 13 11 10 9 7 7 7 9 11 14 15 18 20 22 24 25 27 28 29 30 31 30 30 30 29 27 27 27 26 27 27 26 26 26 26 27 27 28 29 31 33 32
4 3 3 2 1 2 1 2 2 3 4 4 6 12 17 8 8 10 13 11 12 12 11 10 10 11 11 10 10 9 8 10 10 9 11 10 11 15 19 22 23 25 26 27 28 27 26 24 22 21 20 19 18 15 14 13 11 9 7 6 6 7 9 12 13 15 18 20 22 23 25 26 28 29 29 29 28 28 28 27 27 27 27 27 27 27 26 25 25 25 25 27 28 28 30 31 31
9 8 8 8 6 4 1 5 3 3 4 5 4 9 18 7 7 7 7 8 9 11 11 10 10 11 11 10 11 9 8 10 10 10 10 9 9 12 17 20 23 25 27 28 28 27 26 25 23 22 20 19 17 15 13 12 10 7 6 4 5 7 10 11 13 16 18 20 22 24 25 26 27 27 26 26 26 26 25 26 27 27 27 26 27 26 26 25 25 25 26 27 27 27 29 30 29
Wind_Direction
155 153 156 146 142 143 116 66 89 332 75 81 282 174 234 195 83 178 191 217 226 244 214 140 118 133 119 124 142 144 138 170 166 139 201 137 114 94 85 89 87 87 84 78 78 71 63 61 52 45 47 49 53 57 57 59 59 58 61 58 57 55 54 52 45 36 25 17 15 6 353 351 351 351 349 336 329 326 317 312 309 300 290 293 301 302 303 304 305 308 309 309 308 307 306 307 309
150 156 156 150 130 145 208 58 99 333 59 99 223 178 247 31 19 203 193 199 192 163 122 111 102 91 71 87 114 120 98 356 190 138 106 137 115 77 90 91 93 95 94 95 91 86 77 70 63 55 54 57 59 60 60 61 59 56 56 56 57 54 53 51 48 42 35 33 32 25 15 9 360 356 355 348 346 338 330 331 328 316 301 301 303 299 300 303 303 302 303 306 308 310 309 307 308
140 158 148 160 118 52 76 42 88 73 83 132 240 228 217 152 212 226 209 191 157 146 127 110 97 85 68 78 125 106 102 334 189 134 99 149 137 71 97 92 95 97 99 105 98 94 83 74 70 63 60 63 64 62 62 58 57 55 51 52 53 52 46 41 36 26 25 22 19 24 23 21 17 11 3 1 4 356 347 348 342 331 320 312 309 305 306 308 302 298 300 303 306 309 310 310 311
144 159 175 168 95 37 66 43 144 124 111 178 245 239 209 181 201 234 222 175 152 146 123 103 77 46 102 141 171 106 134 212 210 160 122 145 151 115 108 100 100 103 110 114 109 103 87 80 80 75 69 68 68 66 64 60 58 56 54 51 49 52 45 35 22 5 10 1 359 10 11 13 16 16 14 12 11 8 3 357 346 337 333 324 319 317 315 315 310 306 304 302 303 307 312 313 312
153 155 188 171 114 79 102 71 115 96 161 178 144 236 222 194 179 187 185 172 171 160 152 137 111 308 250 133 157 151 152 134 144 156 134 136 145 131 118 111 111 112 115 116 117 111 95 88 88 86 81 77 75 74 70 67 65 61 59 55 51 51 46 42 33 17 11 2 1 7 4 2 4 4 6 9 5 5 7 2 353 345 341 335 327 324 322 320 317 316 311 307 307 308 311 314 312
146 125 98 117 98 130 130 101 113 123 207 173 149 226 204 187 174 162 162 191 238 216 175 168 158 159 232 291 177 201 183 132 136 149 141 145 148 134 125 121 121 117 113 113 116 114 102 96 94 91 87 84 81 80 78 75 73 71 68 64 60 55 50 45 39 33 28 23 15 10 8 3 2 357 353 356 356 357 353 352 359 356 353 348 337 327 325 326 321 322 319 314 313 308 308 312 312
157 143 50 86 58 34 110 138 166 184 190 174 187 201 181 185 173 152 161 196 236 220 179 186 154 130 216 277 174 229 226 169 148 151 150 148 145 134 129 128 127 118 113 113 112 112 106 100 98 94 88 87 83 81 80 78 77 75 74 71 68 64 59 52 46 42 35 28 18 11 8 5 3 0 354 350 349 349 340 340 349 348 354 352 339 328 326 331 331 333 326 318 314 305 302 307 308
146 175 8 95 35 28 87 136 188 195 162 223 242 202 183 182 168 158 172 186 192 198 173 177 158 140 228 80 146 214 173 174 156 151 150 146 142 136 133 131 127 120 116 114 111 109 106 101 97 94 91 88 86 84 80 79 77 75 73 71 70 67 64 60 55 51 43 31 18 8 1 359 356 355 351 346 343 342 339 340 339 332 338 337 331 328 326 326 327 330 325 323 321 310 303 301 300
81 44 80 84 73 38 48 87 209 231 248 257 243 216 201 179 168 165 174 200 232 166 170 172 176 217 177 125 211 279 188 165 152 151 150 146 142 137 136 131 126 120 116 113 108 103 100 97 93 91 90 88 86 84 82 80 77 75 72 69 66 63 60 56 53 51 48 39 31 22 6 356 349 347 341 338 335 334 334 336 337 334 331 328 326 327 327 325 321 318 315 319 320 313 306 299 295
41 25 136 81 82 51 348 259 229 248 237 246 246 219 188 175 175 169 172 204 211 153 176 158 152 184 146 161 209 295 184 167 158 156 153 147 143 142 139 132 126 120 116 110 103 97 93 91 89 86 85 84 83 81 80 77 75 73 70 67 63 59 54 47 44 39 37 34 32 27 20 13 1 355 346 340 336 333 333 332 332 332 330 327 325 322 323 324 322 318 314 315 312 307 304 301 296
35 359 89 81 75 128 224 230 241 257 260 285 268 233 183 168 163 154 161 199 199 153 171 158 178 163 139 205 238 180 169 171 169 161 153 149 145 143 140 131 126 122 116 108 101 97 91 88 88 86 84 82 81 81 79 75 72 69 65 62 58 54 50 45 41 35 30 26 23 22 20 17 11 6 358 349 342 339 337 335 332 329 326 325 325 324 323 319 317 317 316 317 315 310 304 301 298
77 332 62 93 148 193 209 208 245 268 304 311 229 237 168 154 154 174 177 184 184 171 197 189 191 147 138 269 251 173 170 176 176 163 155 150 146 142 138 133 128 124 115 107 103 97 91 87 85 83 82 79 79 79 79 77 72 69 64 60 56 52 49 45 43 39 35 30 24 21 18 15 12 8 2 355 347 342 338 336 334 330 325 321 321 322 323 319 315 314 313 315 317 314 308 303 298
123 155 91 125 177 162 167 187 267 310 312 265 201 212 131 153 186 195 167 150 166 170 227 197 163 123 158 252 244 177 185 183 175 165 158 150 147 142 137 134 130 124 116 112 107 97 90 84 80 77 77 76 76 77 77 78 74 72 69 64 60 56 52 48 44 42 39 36 32 28 24 20 16 13 9 3 355 348 342 337 334 331 326 321 320 318 317 317 315 314 313 314 314 312 309 306 302
139 148 114 134 68 103 159 190 275 204 257 254 178 150 131 167 222 181 146 163 195 178 244 179 148 143 180 227 238 224 192 183 175 168 160 152 150 145 142 138 133 126 119 117 109 97 89 83 79 77 75 75 74 74 75 76 75 73 71 67 64 59 55 52 48 45 41 39 35 33 31 28 24 21 18 14 9 3 357 350 344 337 330 325 321 318 315 312 311 311 311 312 311 308 305 305 304
134 124 91 106 50 7 186 226 197 170 239 230 149 149 125 345 114 144 164 185 219 191 71 167 160 188 194 182 207 229 185 178 174 171 161 156 153 149 147 141 135 129 123 120 111 100 92 85 81 78 74 73 71 72 72 73 73 71 71 68 65 61 57 53 50 48 45 42 38 35 32 29 27 24 22 19 16 12 9 6 2 356 347 339 332 325 320 315 311 309 307 308 307 305 302 301 303
123 114 72 92 129 224 206 204 126 142 247 221 212 148 130 310 106 150 234 163 215 229 96 195 183 215 187 183 245 219 176 173 173 171 164 159 157 154 150 144 139 131 127 123 115 104 96 91 84 79 74 70 68 68 68 69 70 69 69 67 66 62 58 54 50 47 44 42 39 36 32 28 25 22 20 18 15 12 10 9 8 6 1 356 350 342 334 326 319 313 309 307 304 302 300 299 299
64 83 74 84 165 209 200 188 176 175 245 242 251 183 153 277 316 164 254 78 119 223 283 237 234 272 199 232 304 178 168 170 173 170 166 163 160 156 151 145 141 134 133 127 118 111 105 99 89 83 77 72 68 66 65 63 63 63 64 63 63 60 57 53 49 46 42 39 36 33 29 25 23 19 17 14 13 10 8 7 6 5 3 1 359 355 350 343 334 325 317 311 307 304 301 299 297
55 82 98 166 180 200 187 185 197 173 228 221 207 188 159 203 232 172 170 77 104 231 268 262 282 266 230 274 274 159 164 168 172 170 167 165 162 157 151 148 147 141 138 132 126 121 115 108 98 92 84 76 70 67 65 62 59 57 58 57 57 56 53 50 45 43 39 36 32 29 26 23 21 16 15 13 11 9 7 6 4 3 1 360 359 358 355 353 347 340 331 322 315 310 306 303 299
84 113 91 235 196 207 199 180 191 176 111 183 199 191 173 201 178 154 209 245 163 211 251 265 278 262 227 207 158 157 163 167 171 172 169 167 168 163 156 153 153 148 145 141 136 130 124 117 108 102 90 81 74 70 67 64 61 57 56 54 52 51 48 45 41 39 35 33 29 26 25 22 20 18 17 14 12 10 8 6 5 4 1 359 357 356 354 353 350 347 343 336 328 321 315 311 308
152 113 101 245 212 230 227 189 197 201 148 146 191 165 185 219 157 152 207 230 196 213 230 205 238 240 206 178 167 163 165 169 173 176 175 175 176 171 166 162 160 157 153 148 141 136 132 127 119 108 92 83 75 71 70 67 64 59 57 53 50 47 43 40 35 33 30 27 24 22 21 18 17 17 16 15 13 11 9 7 5 3 2 0 357 355 353 351 349 347 345 343 339 335 329 323 317
146 117 168 229 194 249 229 203 208 199 164 154 160 127 229 224 159 180 163 182 247 230 229 210 222 224 187 172 178 174 172 171 176 181 181 181 180 176 173 169 165 161 155 151 146 142 138 134 127 113 94 81 72 69 69 66 65 59 55 51 47 45 42 38 33 29 26 21 19 16 14 12 11 11 11 11 11 10 8 6 4 2 0 359 358 356 354 352 350 348 347 345 343 340 337 332 326
98 202 207 206 153 246 231 205 208 169 129 122 131 155 214 148 169 205 169 207 239 221 230 221 227 212 168 174 178 177 178 177 180 185 186 184 181 175 172 168 164 161 156 154 151 150 145 142 137 123 107 82 66 62 62 59 57 50 47 45 41 40 39 38 34 30 25 19 15 11 7 6 4 4 6 8 8 7 5 3 2 360 358 357 357 355 354 352 351 350 348 346 343 340 336 333 329
163 273 272 226 174 221 232 170 212 158 129 156 168 183 151 128 248 224 192 224 227 151 228 229 235 186 166 171 170 176 182 185 188 190 189 185 181 176 172 169 166 163 161 160 158 156 151 150 150 140 129 93 57 54 53 46 42 37 35 31 28 29 29 29 28 27 23 18 12 7 6 4 2 3 3 6 7 6 4 3 360 358 356 355 355 354 352 351 350 349 347 345 342 338 335 332 329
100 196 280 250 174 221 245 96 190 170 163 203 183 128 152 194 246 20 221 234 225 196 220 209 204 160 160 165 170 185 186 189 192 193 192 187 184 179 175 172 168 167 165 165 164 161 161 163 162 162 166 168 360 16 22 21 22 20 17 13 12 15 15 15 16 19 17 14 10 7 7 4 3 2 2 4 4 4 4 2 360 358 355 353 353 352 350 349 348 347 345 343 340 337 334 331 328
84 168 234 220 197 242 281 335 207 187 221 250 99 225 230 211 216 294 251 241 225 214 145 135 148 143 161 172 179 186 185 191 192 192 193 188 182 178 176 174 171 171 170 169 169 169 172 174 175 184 201 248 292 325 351 4 5 360 360 358 2 5 7 9 9 10 10 11 10 8 8 5 3 3 2 3 2 2 2 1 359 357 356 355 353 352 350 348 346 345 343 341 338 335 332 329 326
182 168 196 219 272 285 325 300 291 65 234 122 161 256 267 268 307 271 260 248 203 155 111 139 147 155 179 181 183 184 183 190 189 190 189 184 180 178 177 177 176 175 174 173 175 176 178 181 186 197 213 234 250 280 334 354 356 349 353 354 358 2 4 6 5 4 3 3 5 7 7 3 3 4 3 3 2 2 1 359 358 356 356 355 354 353 350 348 346 344 342 338 335 332 329 327 323
168 156 200 213 272 306 1 299 305 2 247 168 198 255 273 332 339 253 269 280 146 131 125 167 164 179 189 185 190 188 190 193 189 185 182 183 184 183 181 179 180 178 177 178 179 181 182 186 194 204 216 218 211 200 214 281 336 338 349 351 350 356 360 360 357 356 354 353 360 4 3 1 3 4 3 2 1 359 360 359 358 356 354 354 352 350 349 348 345 343 341 337 334 330 327 325 322
134 129 253 268 318 294 235 286 289 295 246 180 183 246 268 32 249 238 247 101 155 150 161 186 188 199 192 191 192 188 199 197 189 184 183 187 187 185 184 183 182 180 181 182 182 183 184 190 198 204 208 202 197 198 206 234 276 316 330 337 342 353 357 355 353 348 346 349 355 359 359 1 2 2 360 359 358 357 358 358 357 356 353 353 351 348 348 346 343 342 340 337 333 330 326 324 322
103 97 286 300 354 313 225 255 273 176 205 183 164 269 254 191 228 239 202 137 150 147 182 198 202 209 196 199 196 198 204 196 193 195 193 191 188 188 187 186 183 181 182 183 183 183 187 192 197 200 200 198 197 201 209 228 259 296 311 323 338 352 356 351 347 340 341 347 350 355 358 359 359 358 357 357 357 356 356 356 355 355 353 351 350 348 347 345 343 341 340 337 334 331 326 324 322
104 81 82 310 356 323 247 89 92 150 176 177 155 290 262 215 230 241 157 153 141 158 208 207 208 214 204 207 204 209 206 200 202 202 199 193 191 192 189 186 184 184 182 181 183 184 188 191 194 198 196 198 198 203 214 228 251 272 297 317 334 346 352 345 338 330 334 344 347 354 357 357 356 356 355 355 355 353 353 355 354 353 352 350 349 348 346 345 344 342 341 337 334 330 324 322 319
78 19 46 10 345 287 292 9 136 165 173 155 142 268 271 256 244 237 180 168 162 195 221 209 213 215 210 213 211 215 210 209 210 206 202 197 194 193 189 185 182 185 184 182 185 185 188 190 193 197 195 198 199 205 217 225 243 259 287 309 323 333 342 331 321 315 324 337 343 351 354 353 352 352 352 352 351 351 351 352 353 352 350 349 348 347 346 345 343 341 341 337 333 329 322 317 313
33 330 304 338 200 271 300 283 186 212 307 115 152 233 275 275 264 236 173 173 184 214 225 212 218 217 215 218 212 219 217 215 216 212 208 202 198 194 189 185 182 186 186 185 185 185 189 191 193 197 196 200 201 207 217 222 241 262 281 298 304 311 319 302 290 292 309 326 335 345 349 347 345 347 348 348 348 348 348 349 350 349 348 348 346 345 345 343 341 339 337 335 330 324 321 319 315
2 46 259 276 227 282 309 290 222 227 359 227 211 236 279 277 276 301 162 187 197 226 235 221 221 220 218 219 214 217 217 216 219 219 214 205 200 195 189 187 186 187 188 187 187 187 189 191 195 196 197 201 202 206 214 224 242 262 272 280 283 287 289 275 265 272 292 311 325 336 342 341 339 340 343 344 344 345 346 347 347 347 347 346 344 343 342 341 340 336 332 332 327 320 316 316 316
323 21 251 255 228 260 298 294 278 163 172 231 225 234 257 266 273 259 190 193 203 230 238 228 225 226 221 219 218 217 215 217 218 217 214 206 199 196 191 189 189 189 190 190 190 190 191 192 195 196 198 200 201 206 213 228 241 252 261 265 270 276 278 271 263 270 290 303 314 326 334 336 334 336 340 340 341 341 342 344 345 345 344 343 342 340 339 338 336 333 329 328 326 320 312 308 309
231 234 242 271 257 243 256 266 271 125 187 239 226 240 255 266 274 265 213 184 216 237 241 235 232 233 227 219 219 219 218 222 221 215 210 204 199 195 192 190 189 190 191 191 191 191 192 194 196 195 198 199 202 209 215 228 239 247 257 261 264 272 280 276 268 277 294 301 309 318 326 332 331 333 337 337 338 337 339 340 341 342 342 341 339 338 337 335 333 330 326 324 323 320 315 312 309
189 203 196 238 258 258 245 241 257 173 223 253 237 242 258 266 274 273 247 178 226 247 246 246 242 239 231 218 221 220 222 228 222 214 208 204 200 196 194 191 190 191 191 192 190 192 194 195 196 196 198 199 203 210 216 229 242 251 258 262 265 273 284 279 271 283 297 300 307 314 321 328 328 330 333 333 334 334 336 337 337 338 338 337 336 335 334 331 330 327 324 323 322 320 316 316 314
140 151 186 232 241 266 265 246 291 322 204 259 250 248 263 265 268 274 265 179 240 254 245 250 248 242 231 219 224 220 224 231 216 211 209 205 202 198 196 193 192 193 193 193 191 193 196 196 198 197 197 200 203 210 218 231 243 253 261 266 273 279 287 286 276 284 298 300 307 314 319 324 324 328 329 329 330 331 333 333 333 333 333 333 331 330 329 328 327 325 324 323 321 317 312 312 313
112 159 208 258 233 254 272 276 317 342 169 264 279 277 268 264 266 272 265 217 245 251 232 246 250 244 233 223 228 224 226 228 199 205 207 204 203 200 198 197 195 195 194 194 194 195 197 199 201 198 198 202 205 213 222 233 244 255 264 273 283 289 294 294 289 292 300 302 309 313 315 319 321 325 326 326 327 328 330 330 329 329 329 329 327 326 325 325 324 324 324 322 318 313 306 307 311
113 138 182 261 243 270 294 326 346 358 192 270 296 288 271 267 264 265 263 243 248 250 218 235 249 245 233 226 229 225 224 222 204 203 202 201 203 200 199 199 199 198 196 196 196 197 197 199 201 197 199 204 208 216 225 235 244 254 265 274 286 295 299 297 295 299 302 305 310 311 312 316 319 322 324 323 324 326 328 327 327 326 325 325 324 322 321 321 321 321 321 317 313 308 301 302 305
152 148 177 250 248 280 284 307 330 275 217 278 290 279 268 264 259 260 267 258 255 254 228 236 245 238 236 229 221 219 219 220 210 203 199 198 200 200 200 200 199 199 198 198 197 197 198 200 200 197 201 206 210 218 227 235 243 250 260 270 281 290 295 296 296 298 302 307 310 311 314 317 319 321 323 324 324 325 325 324 323 322 321 321 320 318 316 316 316 315 316 313 308 305 300 297 294
242 198 206 237 235 223 237 282 322 312 317 331 310 292 278 251 248 260 295 319 275 259 240 250 246 233 245 243 222 218 219 217 208 203 198 195 199 201 201 199 198 198 199 199 197 197 200 201 200 199 202 207 211 219 227 235 241 247 254 265 277 286 292 295 298 300 303 306 308 313 318 319 319 320 322 323 322 322 322 321 320 318 317 317 316 314 312 311 310 310 310 306 300 296 296 296 291
290 232 214 221 227 233 251 327 352 355 331 336 9 323 298 233 201 263 299 318 286 257 233 255 252 226 230 240 233 223 222 218 209 204 198 198 201 202 200 199 198 200 202 200 198 199 202 202 201 200 203 207 211 217 225 234 239 244 250 262 277 290 294 295 297 298 300 303 307 312 317 318 317 317 319 321 320 320 319 319 317 315 314 313 312 310 308 307 306 305 304 299 293 289 289 291 289
285 247 202 199 200 208 227 360 11 299 254 304 52 328 282 271 146 245 275 290 283 274 258 259 259 240 218 228 233 223 221 216 208 206 200 200 200 198 200 200 200 202 202 200 199 201 202 201 201 202 205 207 210 215 223 232 236 239 248 260 274 283 287 291 295 295 296 301 307 311 315 316 316 316 318 320 320 319 317 317 315 312 310 308 307 304 302 301 300 300 298 292 288 286 281 282 284
238 232 130 136 151 173 182 142 171 238 273 321 343 178 274 276 214 243 275 270 279 277 271 268 262 252 234 229 231 221 218 208 202 207 202 201 199 198 201 201 202 202 201 199 199 201 202 201 201 203 206 208 210 215 223 231 234 236 244 257 268 274 277 286 295 296 298 303 307 310 314 315 317 318 319 320 321 319 317 316 313 310 308 306 305 301 298 297 294 293 292 287 284 281 274 274 279
235 186 119 124 140 152 151 132 183 261 19 307 254 163 272 273 234 304 338 232 255 262 261 263 262 257 247 236 232 221 216 205 202 208 205 202 200 201 203 201 202 202 200 200 200 201 202 201 202 205 207 208 210 216 223 228 231 234 241 251 263 270 273 282 290 294 298 303 305 310 314 315 318 321 321 321 321 319 318 315 313 310 307 305 304 301 298 296 293 289 287 283 280 277 273 272 275
184 131 100 79 78 85 91 120 151 36 348 261 240 169 228 274 214 142 64 195 235 248 252 256 258 262 254 240 236 222 213 208 208 212 207 204 203 203 202 200 201 201 200 201 201 201 201 201 203 205 207 208 210 218 223 226 228 232 240 248 260 269 274 282 288 293 299 302 304 310 314 315 318 321 322 321 320 319 317 315 312 309 306 304 301 299 298 296 292 288 284 280 277 276 275 272 272
129 112 78 49 45 56 51 60 95 36 266 257 237 181 192 271 247 164 184 197 209 221 240 253 259 266 253 231 230 216 210 210 209 212 207 203 203 201 198 198 199 199 200 200 200 201 201 202 204 205 206 207 211 219 223 224 226 231 240 248 257 268 278 286 291 295 301 304 307 312 314 315 319 321 321 320 319 318 316 313 311 308 305 302 299 297 296 294 291 286 282 279 276 274 274 273 271
112 101 75 31 341 14 19 357 56 256 255 262 252 183 187 243 250 202 227 240 218 206 215 224 232 251 247 218 224 219 209 206 200 202 199 192 193 192 194 196 197 196 198 198 198 199 200 201 204 204 204 205 211 219 223 225 226 231 240 247 257 268 278 285 289 294 300 304 308 312 314 317 320 321 320 320 319 318 315 312 309 307 304 301 299 296 293 291 289 284 281 278 276 274 272 272 271
112 103 88 47 326 356 350 306 140 226 254 251 149 151 216 246 246 229 236 249 236 216 212 209 209 232 239 218 222 223 205 199 197 197 195 191 188 189 192 194 194 194 196 197 196 198 199 201 204 205 203 204 211 218 224 226 226 231 238 246 258 268 277 283 286 291 297 304 308 309 312 316 318 318 318 318 317 316 313 310 308 305 302 300 297 294 292 290 287 283 280 276 275 274 271 270 269
165 149 129 142 141 52 279 269 277 271 271 269 134 143 250 269 255 219 218 227 224 213 214 217 215 228 236 233 228 225 213 203 200 200 198 197 197 195 194 193 193 195 196 195 195 198 199 200 202 205 202 203 211 218 223 225 225 230 238 246 258 267 276 282 287 292 300 307 308 307 309 312 312 312 313 313 313 313 310 308 306 303 300 298 296 293 290 288 285 281 279 277 275 274 272 270 270
178 156 140 158 154 176 234 232 247 274 290 294 210 182 224 252 261 215 214 226 226 217 218 225 243 246 243 268 255 236 224 211 205 207 206 205 201 197 196 194 195 196 195 194 196 198 199 199 201 203 201 202 210 217 220 222 223 229 237 246 258 268 277 286 292 299 307 311 309 307 310 311 310 309 310 310 310 310 308 306 304 301 299 296 293 290 287 285 283 280 278 277 276 275 273 271 272
195 129 125 177 177 175 215 213 192 224 319 292 231 222 226 219 284 264 234 237 228 226 229 234 251 245 212 261 253 238 229 215 207 210 212 209 203 199 198 196 196 196 194 194 196 198 197 197 200 201 200 202 209 214 216 219 222 227 236 246 258 269 281 291 298 308 314 313 310 309 311 311 310 310 309 309 310 309 308 306 302 298 297 294 289 286 284 282 281 279 278 277 276 275 274 272 273
164 147 176 208 183 139 145 266 40 74 285 272 239 255 271 287 286 233 208 223 223 221 226 232 238 220 190 240 243 233 228 216 209 211 212 206 199 201 201 198 196 194 193 194 195 196 195 195 197 197 198 201 206 210 213 217 222 227 235 245 260 275 287 297 306 315 317 313 312 312 312 311 311 311 310 310 311 309 307 304 299 295 294 291 287 285 283 282 281 280 277 275 277 277 274 273 273
132 194 209 174 110 95 110 248 355 30 246 270 290 270 273 282 277 207 184 225 234 229 225 232 236 204 206 238 239 233 227 215 216 217 213 206 200 202 202 200 199 196 193 193 192 192 193 194 196 196 198 202 204 208 212 215 220 227 236 248 264 281 294 306 315 319 316 313 315 315 313 312 313 312 312 311 310 308 305 302 297 295 294 292 289 287 286 284 282 280 277 275 277 277 275 274 273
127 206 206 115 138 154 109 166 226 253 238 275 282 276 272 262 250 219 209 217 223 229 226 229 230 212 218 236 238 234 222 209 218 218 213 209 204 203 201 199 198 196 193 190 187 187 188 190 194 197 200 202 203 207 211 213 218 226 237 251 270 289 303 316 321 319 315 315 317 317 314 314 314 314 312 311 309 306 305 303 299 297 296 294 293 290 288 286 283 280 279 277 277 276 275 274 273
76 256 104 71 156 170 168 166 179 219 220 264 280 282 276 251 194 189 218 213 206 213 216 217 221 217 217 226 233 228 213 212 216 214 214 211 206 205 202 198 194 191 188 185 182 183 185 188 192 196 198 200 202 206 208 210 216 227 238 253 278 299 315 324 324 319 317 319 319 318 316 315 314 313 312 310 307 305 304 303 300 299 298 296 295 293 291 288 284 280 279 278 280 279 275 273 273
161 171 175 196 170 127 210 232 125 145 194 235 267 273 272 256 149 180 210 202 195 198 201 210 216 220 219 220 227 222 210 217 216 213 215 210 205 202 199 196 191 186 183 180 181 183 184 188 192 195 197 198 201 203 205 211 215 225 241 261 291 317 329 328 323 320 320 321 320 319 318 316 313 312 311 308 305 304 304 303 301 300 299 298 297 295 293 290 285 282 281 280 282 282 277 274 274
173 185 188 190 180 132 183 251 221 147 193 206 192 258 270 262 126 172 188 169 192 195 195 208 209 214 220 220 224 218 213 219 217 215 215 205 201 195 189 187 184 182 181 179 181 182 184 188 192 195 196 197 199 199 202 210 216 225 247 282 312 332 334 325 321 323 324 323 322 321 320 316 312 310 309 306 305 305 304 303 302 301 300 298 297 294 292 291 288 285 285 283 282 282 279 277 274
Height
812 812 813 813 813 813 815 816 826 835 838 851 860 857 851 849 850 849 848 848 847 849 850 850 850 850 849 847 848 852 856 853 852 858 855 855 859 857 858 857 856 856 855 855 854 853 852 852 851 850 849 848 847 847 846 845 845 844 843 843 843 842 842 842 842 842 842 842 842 842 842 842 841 841 841 841 841 841 841 840 840 841 841 841 841 841 841 841 841 841 841 841 841 840 840 840 839
812 813 813 813 814 814 820 821 831 842 842 852 858 855 851 850 851 844 843 845 844 849 850 850 850 851 851 850 850 852 855 856 855 856 855 858 858 857 858 856 856 855 855 854 853 853 852 852 851 850 849 848 848 847 846 845 845 844 844 843 842 842 842 842 842 842 842 841 841 841 842 842 841 841 841 840 840 840 840 840 839 840 840 840 840 840 840 840 840 841 841 840 840 840 840 839 839
812 813 813 813 815 816 822 823 832 845 843 848 851 851 851 848 846 840 841 843 845 850 850 849 849 851 852 851 851 850 853 857 856 856 857 857 857 858 857 856 856 854 854 854 853 853 851 852 851 850 849 848 848 847 846 845 845 844 843 843 843 842 842 842 842 842 841 841 841 841 841 841 841 840 840 840 840 839 839 839 839 839 839 840 840 839 839 839 839 840 840 840 839 839 839 839 838
812 812 813 813 817 818 822 828 837 841 841 852 849 845 847 842 841 843 844 844 847 849 848 849 848 851 851 848 850 851 853 856 855 855 857 856 857 857 856 856 855 854 854 853 853 852 851 851 850 850 849 848 847 846 846 845 845 844 844 843 843 843 843 842 842 842 842 841 841 841 841 841 840 840 840 840 839 839 838 838 839 839 839 839 839 839 839 838 838 839 839 839 838 838 838 838 838
811 812 813 812 818 820 825 838 844 837 837 848 844 842 843 840 842 845 846 846 848 847 847 848 848 851 851 850 852 851 851 854 854 855 855 856 856 856 856 855 854 854 853 853 852 851 851 850 850 849 848 848 847 846 845 845 844 844 844 843 843 843 843 842 842 842 842 841 841 840 840 840 840 839 839 839 839 839 838 839 839 839 839 839 839 838 838 838 838 838 837 837 837 837 837 836 836
811 812 812 812 818 821 825 836 839 836 837 840 837 838 840 840 843 844 847 847 848 848 848 847 847 849 850 852 853 851 851 852 853 854 855 855 856 855 855 854 854 854 853 853 852 851 850 850 850 849 848 847 847 846 845 845 844 844 843 843 843 843 842 842 842 842 841 841 841 840 840 839 839 839 838 838 838 838 838 838 838 838 838 838 838 837 837 837 837 837 836 836 836 835 835 835 835
810 811 814 815 821 823 826 833 836 836 839 841 835 834 837 840 842 843 847 848 846 847 847 847 847 846 847 851 851 852 852 851 852 852 853 854 855 855 854 854 854 854 853 853 852 852 850 850 850 849 848 847 847 846 845 845 844 844 843 843 842 842 842 841 841 841 841 841 840 840 840 839 839 838 838 838 837 837 837 837 837 837 837 837 836 836 836 836 836 835 835 834 834 833 833 833 833
809 813 818 818 825 832 835 838 839 840 841 844 840 837 837 838 842 842 844 844 843 845 845 846 848 843 844 851 850 851 852 851 852 852 853 854 854 855 854 854 854 853 853 853 852 852 851 850 849 849 848 847 847 846 845 845 844 844 843 843 842 842 841 841 841 840 840 840 840 839 839 838 838 838 837 837 836 836 836 836 836 835 835 835 835 835 834 834 834 833 833 833 832 831 831 831 831
809 813 819 820 828 837 842 843 842 843 842 842 838 838 838 839 842 840 841 842 840 842 843 845 846 841 844 851 850 851 852 851 852 852 853 853 854 854 854 854 854 854 853 853 853 852 851 850 849 849 848 847 846 846 845 845 844 844 843 843 842 842 841 841 840 840 840 839 839 838 838 837 837 836 836 836 835 835 835 835 834 834 834 834 834 834 833 833 832 832 832 831 831 830 830 830 830
811 814 820 824 831 837 841 842 842 840 839 838 834 834 836 839 841 837 839 839 840 840 842 847 845 844 845 849 850 850 850 850 851 852 853 853 854 854 854 855 854 854 853 853 852 852 851 850 849 848 848 847 846 846 845 845 844 844 843 843 842 842 841 841 840 840 839 839 838 838 837 837 836 835 835 834 834 834 834 833 833 833 833 832 832 832 832 832 831 831 831 831 830 829 829 829 829
814 818 821 826 832 834 835 835 837 837 835 837 833 831 834 838 838 838 839 838 840 840 843 846 842 845 848 848 849 848 848 850 850 851 852 852 853 854 854 854 854 854 853 853 852 851 851 850 849 848 848 847 846 846 845 845 844 844 843 843 842 842 841 841 840 840 839 839 838 838 837 836 836 835 835 834 833 833 833 832 832 832 831 831 831 831 831 830 830 830 829 829 829 828 828 828 827
815 822 822 825 832 832 835 834 833 835 834 834 829 828 834 838 835 834 837 836 839 841 842 842 838 841 846 847 846 846 848 848 849 850 851 852 853 854 854 854 854 854 853 852 852 852 851 850 849 849 848 847 847 846 845 845 844 844 843 843 842 842 842 841 841 840 839 839 838 838 837 837 836 835 835 834 833 833 832 832 831 831 830 830 830 830 829 829 829 828 828 828 827 827 827 826 826
816 824 820 826 841 841 841 839 836 838 835 830 826 830 835 834 831 829 833 836 838 840 838 838 839 839 841 844 844 845 846 845 848 849 850 851 852 853 853 854 854 853 853 852 852 852 851 850 850 849 848 847 847 846 845 845 844 844 843 843 842 842 842 841 841 840 839 839 838 838 837 836 836 835 834 834 833 833 832 831 831 830 829 829 829 828 828 828 828 827 827 826 826 825 825 825 824
817 824 820 831 854 851 843 839 838 840 832 826 826 832 835 832 832 831 832 834 836 837 835 838 841 838 839 842 841 842 842 844 847 848 850 850 851 853 853 853 853 853 852 853 852 851 851 850 850 849 848 848 847 846 845 845 844 844 843 843 842 842 842 841 841 840 840 839 838 838 837 836 835 835 834 833 833 832 831 831 830 829 829 828 827 827 827 826 826 826 825 825 824 824 823 823 822
817 824 825 835 851 848 842 839 840 841 829 825 829 832 832 833 836 835 832 830 832 837 838 839 839 835 835 834 833 836 839 842 845 846 848 849 850 852 852 853 852 852 852 852 852 851 851 850 850 849 848 847 847 846 845 845 844 844 844 843 843 842 842 842 841 841 840 839 839 838 837 836 835 835 834 833 832 831 830 830 829 829 828 827 826 826 825 824 824 824 823 823 822 822 821 821 820
818 821 826 832 841 842 839 842 845 842 830 826 832 832 828 833 838 835 835 834 833 839 838 837 837 834 832 831 830 834 837 840 843 845 847 848 849 851 852 852 851 852 852 852 852 851 851 850 849 849 848 847 846 846 845 845 845 844 844 843 843 842 842 842 841 841 840 840 839 838 837 836 835 835 834 833 832 831 830 829 828 828 827 827 826 825 824 823 822 822 821 820 820 819 818 818 818
817 817 824 828 837 839 835 839 839 832 824 826 832 831 825 830 836 835 838 838 835 838 838 836 837 836 834 833 833 834 835 838 841 843 845 846 848 850 850 850 851 852 852 852 851 851 850 850 849 848 848 847 846 845 844 844 844 844 844 843 843 842 842 841 841 840 840 839 839 838 837 836 836 835 834 833 832 831 830 829 828 827 826 825 825 824 823 822 821 820 820 819 818 817 816 815 815
816 821 826 827 835 833 826 829 829 825 820 822 828 828 826 826 831 835 835 835 835 837 837 836 835 835 835 834 834 835 836 837 839 841 843 845 846 848 849 849 850 851 851 851 850 850 849 849 848 848 847 846 846 845 844 844 844 844 843 843 842 842 841 841 840 840 839 839 838 837 837 836 835 834 833 833 832 831 830 829 828 827 826 824 824 823 822 821 820 819 818 817 816 815 814 813 812
819 826 827 825 828 826 822 822 823 824 820 821 827 829 828 824 827 833 830 829 834 834 833 835 834 831 832 834 834 835 836 837 839 841 842 844 845 846 847 848 848 849 849 849 849 849 848 848 848 847 847 846 845 844 844 843 843 843 843 842 842 841 841 840 840 839 839 838 837 837 836 835 835 834 833 832 831 830 829 828 827 826 825 824 823 821 820 819 818 817 816 816 815 814 813 812 811
822 825 822 821 822 822 824 822 820 821 821 822 825 829 830 826 828 831 828 828 833 830 825 828 828 825 828 832 834 834 836 837 838 840 841 842 843 844 844 845 846 847 848 848 848 848 848 847 847 846 846 845 845 844 844 843 843 843 843 842 842 841 841 840 839 839 838 838 837 836 835 835 834 833 832 832 831 830 829 828 826 825 824 823 821 820 819 817 816 815 814 814 812 812 811 810 809
822 822 817 820 825 821 819 821 819 821 824 822 823 829 828 827 831 829 828 828 827 824 818 817 816 816 823 830 832 833 834 835 837 837 838 840 840 842 843 843 845 846 847 847 847 847 847 847 846 845 845 845 845 844 844 843 843 843 843 842 842 841 841 840 840 839 838 838 837 836 836 835 834 833 832 831 830 829 828 826 825 824 823 822 820 819 817 816 814 813 812 811 810 810 809 808 808
820 820 819 823 827 819 816 821 822 823 826 824 825 825 823 827 830 827 827 822 814 813 813 812 811 813 820 826 829 831 833 833 834 835 836 837 838 840 841 842 844 845 846 846 846 846 846 845 844 844 844 844 844 844 843 842 842 842 842 842 841 841 841 840 840 839 839 838 837 836 836 835 834 833 832 830 829 828 827 825 824 823 822 820 819 818 816 815 813 812 811 809 809 808 807 807 806
818 819 822 824 827 820 816 822 823 824 824 821 822 822 824 827 823 825 826 813 806 810 813 813 813 815 818 822 826 828 830 831 831 832 833 835 836 838 839 841 842 843 844 844 844 844 844 843 843 842 843 843 843 843 842 841 841 841 840 840 840 840 840 840 840 839 839 838 837 836 836 835 834 833 832 830 829 827 826 825 824 822 821 820 818 817 815 813 812 810 809 808 807 806 805 804 804
818 818 820 823 827 820 817 822 824 825 821 820 825 823 824 822 820 827 821 807 807 812 814 814 813 815 817 821 824 824 825 827 828 830 832 834 835 837 838 839 841 841 842 842 842 842 842 841 841 841 842 842 842 841 841 840 840 839 839 839 839 839 839 839 839 839 839 838 838 837 836 835 834 833 831 830 828 827 825 824 823 822 821 820 818 816 814 812 811 809 807 806 805 804 803 802 801
818 818 820 823 825 819 819 822 822 825 823 825 827 821 821 823 826 825 810 803 808 811 813 814 814 815 817 818 820 822 824 825 827 829 831 832 834 836 837 838 839 839 839 840 840 840 840 839 839 840 840 840 840 839 839 839 839 838 838 838 838 838 838 838 838 838 838 838 838 837 836 835 833 832 831 830 828 826 825 823 822 821 820 819 818 816 814 812 810 808 806 804 803 802 801 800 799
817 818 819 820 820 818 820 819 818 823 824 826 824 818 822 826 828 816 800 802 807 810 813 814 815 815 816 817 818 819 821 823 824 826 828 831 832 833 835 836 837 837 838 838 838 838 838 837 837 838 838 839 839 838 838 838 839 838 838 838 838 838 838 838 838 838 838 837 837 836 835 834 833 832 831 829 828 826 824 822 820 819 818 817 816 815 813 812 810 808 806 804 802 800 799 798 797
818 820 820 820 820 820 821 818 819 823 822 824 821 818 821 827 828 808 795 805 809 808 812 813 813 813 814 815 816 818 819 820 821 823 826 828 829 830 832 833 834 835 835 836 836 836 836 836 836 837 837 837 838 837 838 838 838 838 838 837 837 837 837 837 837 837 836 836 836 835 835 834 833 832 830 829 827 826 823 822 820 818 817 816 814 813 811 810 809 808 806 804 802 799 797 796 795
820 820 818 819 820 820 821 820 821 822 820 822 822 820 823 828 825 801 795 808 809 807 810 813 813 812 814 814 815 817 817 818 820 821 822 822 824 826 827 829 830 832 833 833 833 834 834 835 835 836 836 836 837 837 837 837 837 837 837 837 837 837 837 836 836 836 836 835 835 835 834 833 832 831 830 828 827 825 823 820 819 817 816 815 814 812 810 808 807 806 805 803 801 799 797 795 793
821 821 816 815 817 815 818 820 822 822 818 821 823 818 816 820 810 793 799 810 809 808 808 811 812 812 814 814 815 815 815 817 818 817 817 818 820 822 824 825 827 828 830 831 831 832 833 834 834 835 835 835 836 836 836 836 836 836 836 836 836 836 836 835 835 835 835 835 834 834 833 832 832 831 829 828 827 825 822 820 818 817 815 814 812 811 809 807 805 803 802 800 799 798 796 794 792
821 824 821 818 817 813 816 821 823 821 818 821 823 813 799 800 797 791 804 810 807 808 806 809 812 812 813 813 814 813 813 814 813 813 814 816 818 819 821 823 825 826 827 828 829 831 831 833 833 834 834 834 835 834 835 835 835 835 834 834 834 835 835 834 834 834 834 833 833 833 832 832 831 830 829 827 826 824 822 819 817 816 814 813 811 809 807 805 804 802 800 798 796 795 793 792 790
821 823 825 828 822 812 815 822 821 816 819 821 821 817 796 786 788 791 804 808 804 802 802 808 810 811 812 811 811 810 810 810 809 811 812 814 815 817 819 820 822 823 824 825 827 829 830 831 831 832 833 833 833 833 833 834 834 834 833 833 833 833 833 833 833 832 832 832 831 831 831 830 830 829 828 826 825 824 821 818 816 814 812 811 809 807 806 804 802 800 799 796 794 793 791 790 788
825 819 818 831 827 816 815 819 820 814 818 822 819 816 801 786 784 792 805 808 804 800 799 806 808 809 809 808 808 806 807 808 808 810 810 811 813 814 817 818 819 820 821 823 824 826 827 829 829 830 831 831 832 832 832 833 833 832 831 832 832 831 831 831 831 831 831 830 830 830 829 829 828 827 826 825 824 822 820 817 815 813 811 809 807 806 804 802 800 798 797 796 793 791 789 787 785
829 826 815 821 823 821 816 815 823 820 817 820 817 813 801 787 784 795 808 808 805 801 798 803 805 806 806 804 804 803 805 806 807 807 806 808 810 812 814 815 816 817 819 820 822 823 824 826 827 828 829 829 830 830 831 831 831 830 830 830 830 830 830 830 830 829 829 829 828 828 827 827 827 826 825 823 822 820 818 816 813 811 809 808 806 804 803 801 799 797 795 794 792 790 787 785 783
823 832 823 820 821 822 817 811 821 825 820 817 817 816 803 786 782 792 804 806 804 800 795 798 801 801 800 800 801 801 803 803 801 801 802 805 807 809 811 812 814 815 816 818 819 820 822 823 824 826 827 827 828 829 829 829 829 829 829 829 829 829 829 828 828 828 827 827 826 826 826 825 825 824 823 821 819 817 816 814 812 810 808 806 805 803 802 800 799 797 794 792 791 789 786 784 781
814 821 820 820 823 824 820 814 817 821 820 818 818 817 805 791 784 783 793 802 799 792 792 795 795 794 794 797 799 799 800 798 795 796 799 802 804 807 808 809 811 812 813 815 816 818 819 821 822 824 825 825 826 827 827 828 828 828 828 828 828 828 828 827 827 826 826 825 825 825 824 823 823 821 820 818 817 815 813 811 810 808 806 804 803 801 800 799 797 795 793 791 789 788 786 783 780
810 816 818 818 819 820 818 816 820 822 819 816 816 813 804 795 787 779 783 796 795 788 791 793 791 789 790 794 795 796 796 792 791 795 798 800 802 804 805 806 808 809 811 812 814 816 817 819 820 821 822 823 824 825 826 827 827 828 827 827 827 827 826 826 825 824 824 824 823 823 822 822 820 819 817 816 815 813 811 809 807 806 805 803 801 800 799 797 796 794 792 789 787 785 784 783 780
816 818 821 821 823 819 813 815 822 825 819 810 808 811 806 798 790 780 780 790 790 785 789 790 785 783 785 789 790 790 790 787 790 794 796 798 800 801 803 804 806 807 809 810 811 813 814 816 817 818 820 821 823 824 825 826 826 826 826 826 826 825 825 824 824 823 823 823 822 821 820 819 818 817 815 813 812 810 808 806 805 804 803 802 800 799 797 796 794 792 790 787 785 783 782 781 780
818 819 821 823 827 821 812 817 824 826 822 811 808 811 805 796 789 780 777 783 779 774 783 783 775 775 781 784 784 785 785 786 790 791 792 796 797 799 801 802 804 805 806 808 809 811 812 813 815 817 819 820 822 823 824 824 825 825 824 824 823 823 823 823 822 822 822 821 820 819 818 817 816 814 813 811 810 808 806 804 802 802 800 800 798 796 796 794 792 791 788 786 783 782 780 779 780
820 824 826 823 824 820 814 821 827 827 823 812 810 811 798 788 784 773 768 772 769 765 772 770 764 769 774 776 777 780 782 783 785 787 789 792 794 797 799 799 801 802 804 806 807 809 810 811 813 815 817 819 820 821 822 822 822 822 822 822 821 821 821 821 820 820 820 818 818 817 816 815 813 812 811 809 807 805 803 801 800 799 798 797 795 794 793 792 790 789 788 785 782 780 778 778 779
820 823 822 816 819 819 811 817 825 825 823 818 816 811 791 778 775 766 763 767 765 762 764 763 761 763 765 768 772 775 776 777 779 783 786 788 791 792 792 794 796 798 800 802 804 805 807 808 810 812 814 816 817 818 818 819 819 819 819 820 819 819 819 819 819 818 818 816 815 814 813 812 811 810 808 806 804 802 801 799 798 796 796 795 793 792 790 789 788 787 786 785 783 779 776 776 777
820 821 817 811 814 815 812 818 824 821 824 826 817 792 767 766 769 761 764 770 764 762 761 758 760 762 763 765 767 768 768 770 774 778 781 783 784 785 786 789 791 794 795 796 799 801 803 805 807 809 810 812 813 814 815 816 817 817 817 818 818 818 817 817 817 816 815 814 813 812 811 810 808 807 805 803 802 800 798 797 796 794 793 792 791 790 788 787 786 785 785 783 783 780 775 774 774
817 813 811 809 808 812 818 823 822 816 815 823 820 791 759 759 767 760 763 764 755 756 756 749 752 759 763 763 762 763 765 766 770 772 775 777 779 781 784 786 788 789 790 792 795 798 800 802 804 805 807 809 810 811 812 813 813 814 815 815 816 816 815 815 815 814 813 812 811 809 808 807 805 804 802 800 799 797 796 795 793 792 791 790 789 788 786 785 784 783 783 782 780 780 777 772 771
814 811 811 814 814 817 821 821 819 813 813 821 824 810 780 759 756 754 757 756 747 748 748 742 746 751 755 757 757 760 762 763 766 768 770 772 774 778 780 781 783 783 786 790 793 795 797 799 801 803 804 805 807 808 809 810 810 812 812 812 813 813 813 812 812 812 811 810 808 806 805 804 802 800 799 798 796 795 793 792 791 790 788 787 786 785 784 783 782 781 781 780 778 778 777 772 768
809 816 818 815 816 818 819 819 818 817 823 825 820 820 804 772 759 757 757 756 752 748 743 739 742 744 747 751 752 755 758 760 763 764 765 767 769 772 773 776 778 781 785 788 790 793 795 797 798 800 801 802 804 805 806 807 808 809 809 809 810 810 810 809 809 809 808 807 806 803 802 800 799 798 796 795 793 792 791 790 789 788 786 785 784 783 781 780 779 778 778 778 777 776 775 772 767
808 824 826 820 819 819 820 820 820 826 831 822 815 825 813 774 762 770 767 762 756 746 738 733 732 735 740 744 747 752 754 756 759 759 760 762 764 767 769 773 776 779 783 785 787 790 792 794 796 797 799 800 801 802 803 804 805 805 806 806 807 807 807 807 807 806 805 804 803 800 799 797 796 794 793 792 791 790 789 787 786 785 784 782 781 780 778 777 776 776 775 775 774 773 772 770 765
815 830 828 826 827 827 827 823 820 828 828 810 804 818 807 765 748 763 771 765 754 742 735 732 731 732 737 742 743 747 752 754 755 756 757 759 761 764 768 772 775 777 780 783 785 788 790 791 793 795 796 798 799 799 800 801 801 802 803 803 804 804 805 805 804 803 802 801 799 797 796 794 793 791 790 789 788 787 786 785 783 782 781 779 778 777 775 774 773 772 772 771 771 769 768 766 763
823 824 818 819 825 830 833 829 824 822 809 792 792 804 802 772 746 751 757 749 740 733 731 733 732 730 732 739 741 743 748 750 753 755 756 758 760 764 767 770 773 775 778 781 783 785 786 788 790 792 794 795 796 796 797 798 798 799 800 801 801 802 802 802 801 799 799 798 796 794 793 792 790 789 788 786 785 784 783 782 780 779 778 776 775 773 772 770 769 769 768 767 766 765 763 762 759
821 813 807 809 815 820 824 825 825 814 789 784 800 810 806 779 748 744 745 737 733 730 725 723 723 722 724 732 738 740 745 748 751 754 755 757 760 762 765 767 770 773 775 777 779 781 783 785 787 789 790 792 793 793 794 794 795 796 797 798 798 799 799 799 798 796 796 795 793 791 790 788 787 786 785 783 782 781 779 778 777 775 774 772 771 769 768 767 766 765 764 762 761 760 758 757 755
816 808 809 811 813 815 811 809 814 807 786 791 813 815 798 766 737 737 741 734 731 731 727 719 716 718 720 727 735 739 744 748 749 752 752 754 757 758 761 763 766 769 770 772 775 777 780 781 784 785 787 789 789 790 790 791 792 793 794 795 795 796 796 795 795 794 793 792 790 789 787 785 784 783 782 780 778 777 776 774 773 771 769 768 766 765 764 762 762 760 758 757 756 755 753 752 750
813 804 805 807 812 816 807 803 809 800 783 795 816 806 779 749 726 726 728 721 720 724 728 724 718 718 720 727 736 739 744 747 747 749 749 750 752 753 756 758 761 764 766 769 771 774 776 778 780 782 783 785 785 786 787 788 789 790 791 792 792 793 792 792 792 790 789 788 787 786 785 783 781 780 778 777 775 774 772 770 769 767 765 764 762 761 759 758 757 755 753 752 750 749 748 746 745
811 803 802 800 799 798 791 789 790 781 776 795 812 794 759 730 715 715 716 714 716 719 723 726 724 726 729 733 737 739 740 744 745 746 746 746 747 749 752 754 756 759 762 765 767 769 772 774 776 778 779 781 782 783 784 785 786 787 788 788 789 789 789 788 788 787 785 784 784 783 781 780 778 776 774 773 771 769 768 766 765 763 761 760 758 756 755 753 752 750 748 746 744 743 743 740 739
810 810 803 797 789 782 785 794 796 796 795 793 792 772 738 720 714 716 719 717 716 717 720 725 724 727 735 734 732 734 737 740 743 743 743 743 745 747 749 750 752 755 758 760 762 765 767 770 772 775 776 778 780 781 781 782 783 783 784 785 785 785 785 785 784 783 781 781 780 779 777 777 775 773 771 769 767 765 764 762 760 759 757 755 754 752 750 749 747 745 743 741 739 738 737 734 733
803 808 795 795 794 783 785 801 814 820 805 777 767 755 727 716 714 709 713 714 713 717 720 719 719 725 733 730 726 730 733 736 739 739 738 740 742 744 745 747 748 750 753 755 757 760 763 766 769 771 774 775 776 777 778 779 779 780 781 781 782 782 781 781 780 778 778 777 777 775 774 773 771 770 767 765 763 761 760 758 756 754 753 751 749 748 746 744 743 741 738 736 733 733 731 728 726
794 794 786 792 798 791 790 797 804 812 802 773 756 745 723 714 713 708 714 716 710 713 716 714 716 724 728 723 722 726 728 732 735 735 736 736 738 740 740 743 744 745 748 750 754 758 761 764 766 768 770 771 772 773 774 775 776 776 777 777 778 778 777 777 775 775 775 774 773 772 771 770 768 766 764 761 759 758 756 755 753 750 749 747 745 744 742 740 739 736 733 731 729 728 726 722 721
790 788 789 788 786 789 797 799 791 791 796 776 747 736 718 701 700 703 706 708 703 704 711 712 714 718 721 719 719 722 726 731 733 732 733 733 733 735 736 738 741 743 746 748 752 755 758 761 763 764 766 767 768 770 770 772 772 773 774 774 774 774 774 773 772 772 772 771 770 769 768 767 765 763 761 758 757 755 753 751 749 747 744 742 741 739 738 736 734 731 729 727 725 724 721 717 715
797 793 794 789 782 784 788 793 786 776 782 773 750 736 702 671 678 686 683 689 694 696 700 703 706 709 713 715 713 717 722 725 727 728 728 727 727 730 732 735 738 740 743 746 749 752 754 757 759 760 762 763 765 766 767 768 769 770 771 771 771 771 770 770 769 770 769 768 767 766 765 764 762 760 758 756 754 752 749 747 745 743 741 738 736 735 733 731 729 727 725 722 720 719 716 712 710
789 787 788 788 787 791 788 788 787 776 772 771 765 744 689 653 665 671 666 678 687 690 691 694 699 703 708 712 709 711 717 719 721 722 721 722 724 727 731 734 737 739 742 744 745 748 750 753 755 756 758 760 761 763 764 765 766 767 768 768 768 767 767 767 767 767 766 765 764 764 762 761 759 757 756 753 751 749 746 744 741 739 737 735 732 730 729 727 724 722 720 718 716 714 711 707 705
768 769 771 772 774 784 784 780 784 782 772 761 762 746 688 653 664 666 667 679 683 687 690 688 693 695 698 706 706 708 712 713 715 716 716 719 722 725 729 732 735 737 738 740 741 744 746 748 751 752 754 756 758 760 761 762 764 764 765 765 765 764 764 765 765 764 763 762 761 761 759 758 756 755 753 750 748 745 743 741 738 735 733 731 729 727 725 723 720 718 716 714 711 709 706 703 701